When you browse on this site, cookies collect data to enhance your experience and personalize the content and advertising you see.
Visit our Privacy Policy to learn more. By continuing to use the site, you agree to this use of cookies and data.
  • In Deutschland
  • Länderverzeichnis
  • Für 7 Tage
  • Wassertemperatur
  • Satellitenkarten
  • Wetterkarte
  • Widgets
  • user-avatar
    Anmelden

    Stündliche Wetter Emelyanovo

    Heute, 16 November, Freitag

    Zeit Temperatur Niederschläge Wind Luftdruck Luftfeuchtigkeit
    00:00 -1°C° 0 mm 1 m/S 765 mmHg 79%
    01:00 -1°C° 0 mm 1 m/S 765 mmHg 79%
    02:00 0°C° 0 mm 1 m/S 765 mmHg 80%
    03:00 -1°C° 0 mm 1 m/S 766 mmHg 80%
    04:00 -1°C° 0 mm 1 m/S 766 mmHg 80%
    05:00 -1°C° 0 mm 1 m/S 766 mmHg 80%
    06:00 -1°C° 0 mm 1 m/S 766 mmHg 80%
    07:00 -1°C° 0 mm 1 m/S 766 mmHg 80%
    08:00 -1°C° 0 mm 1 m/S 767 mmHg 79%
    09:00 -2°C° 0 mm 2 m/S 767 mmHg 75%
    10:00 -1°C° 0 mm 2 m/S 767 mmHg 72%
    11:00 +1°C° 0 mm 2 m/S 767 mmHg 68%
    12:00 +1°C° 0 mm 2 m/S 767 mmHg 69%
    13:00 +2°C° 0 mm 1 m/S 767 mmHg 70%
    14:00 +2°C° 0 mm 1 m/S 767 mmHg 72%
    15:00 +1°C° 0 mm 1 m/S 767 mmHg 75%
    16:00 0°C° 0 mm 1 m/S 767 mmHg 77%
    17:00 -2°C° 0 mm 2 m/S 767 mmHg 79%
    18:00 -2°C° 0 mm 2 m/S 767 mmHg 80%
    19:00 -2°C° 0 mm 2 m/S 767 mmHg 81%
    20:00 -2°C° 0 mm 2 m/S 767 mmHg 82%
    21:00 -2°C° 0 mm 2 m/S 767 mmHg 83%
    22:00 -2°C° 0 mm 2 m/S 767 mmHg 83%
    23:00 -2°C° 0 mm 2 m/S 767 mmHg 84%

    Morgen, 17 November, Samstag

    Zeit Temperatur Niederschläge Wind Luftdruck Luftfeuchtigkeit
    00:00 -2°C° 0 mm 2 m/S 766 mmHg 84%
    01:00 -2°C° 0 mm 3 m/S 766 mmHg 84%
    02:00 -2°C° 0 mm 3 m/S 766 mmHg 84%
    03:00 -2°C° 0 mm 3 m/S 765 mmHg 84%
    04:00 -2°C° 0 mm 3 m/S 765 mmHg 84%
    05:00 -2°C° 0 mm 3 m/S 764 mmHg 84%
    06:00 -2°C° 0 mm 3 m/S 764 mmHg 84%
    07:00 -2°C° 0 mm 3 m/S 764 mmHg 83%
    08:00 -3°C° 0 mm 4 m/S 763 mmHg 82%
    09:00 -2°C° 0 mm 4 m/S 763 mmHg 79%
    10:00 -1°C° 0 mm 4 m/S 762 mmHg 76%
    11:00 -1°C° 0 mm 4 m/S 761 mmHg 73%
    12:00 -1°C° 0.1 mm 4 m/S 761 mmHg 74%
    13:00 0°C° 0.1 mm 4 m/S 760 mmHg 75%
    14:00 0°C° 0.1 mm 4 m/S 759 mmHg 76%
    15:00 -1°C° 0.6 mm 4 m/S 759 mmHg 80%
    16:00 -1°C° 0.6 mm 4 m/S 758 mmHg 83%
    17:00 -1°C° 0.6 mm 4 m/S 757 mmHg 87%
    18:00 -1°C° 0.1 mm 4 m/S 756 mmHg 88%
    19:00 -1°C° 0.1 mm 4 m/S 755 mmHg 88%
    20:00 -1°C° 0.1 mm 4 m/S 754 mmHg 89%
    21:00 -1°C° 0.1 mm 4 m/S 754 mmHg 89%
    22:00 0°C° 0.1 mm 4 m/S 753 mmHg 90%
    23:00 0°C° 0.1 mm 4 m/S 752 mmHg 90%

    übermorgen, 18 November, Sonntag

    Zeit Temperatur Niederschläge Wind Luftdruck Luftfeuchtigkeit
    00:00 0°C° 0 mm 4 m/S 751 mmHg 91%
    01:00 0°C° 0 mm 4 m/S 750 mmHg 91%
    02:00 0°C° 0 mm 4 m/S 750 mmHg 92%
    03:00 0°C° 0.1 mm 4 m/S 749 mmHg 92%
    04:00 0°C° 0.1 mm 4 m/S 748 mmHg 93%
    05:00 +1°C° 0.1 mm 3 m/S 748 mmHg 93%
    06:00 +1°C° 0.2 mm 3 m/S 748 mmHg 94%
    07:00 +1°C° 0.2 mm 3 m/S 747 mmHg 94%
    08:00 +1°C° 0.2 mm 3 m/S 747 mmHg 95%
    09:00 +2°C° 0.1 mm 2 m/S 747 mmHg 95%
    10:00 +2°C° 0.1 mm 2 m/S 747 mmHg 95%
    11:00 +2°C° 0.1 mm 2 m/S 747 mmHg 95%
    12:00 +2°C° 0.1 mm 2 m/S 747 mmHg 96%
    13:00 +2°C° 0.1 mm 2 m/S 747 mmHg 96%
    14:00 +2°C° 0.1 mm 2 m/S 747 mmHg 96%
    15:00 +2°C° 0.3 mm 2 m/S 748 mmHg 96%
    16:00 +2°C° 0.3 mm 2 m/S 748 mmHg 96%
    17:00 +2°C° 0.3 mm 2 m/S 748 mmHg 96%
    18:00 +2°C° 0.2 mm 2 m/S 748 mmHg 96%
    19:00 +1°C° 0.2 mm 2 m/S 749 mmHg 96%
    20:00 0°C° 0.2 mm 3 m/S 749 mmHg 96%
    21:00 0°C° 0.1 mm 3 m/S 749 mmHg 96%
    22:00 0°C° 0.1 mm 3 m/S 750 mmHg 96%
    23:00 0°C° 0.1 mm 3 m/S 750 mmHg 96%

    19 November, Montag

    Zeit Temperatur Niederschläge Wind Luftdruck Luftfeuchtigkeit
    00:00 0°C° 0.1 mm 3 m/S 751 mmHg 96%
    01:00 0°C° 0.1 mm 3 m/S 751 mmHg 96%
    02:00 0°C° 0.1 mm 3 m/S 752 mmHg 95%
    03:00 0°C° 0.1 mm 3 m/S 752 mmHg 95%
    04:00 0°C° 0.1 mm 3 m/S 752 mmHg 95%
    05:00 0°C° 0.1 mm 3 m/S 753 mmHg 94%
    06:00 0°C° 0.2 mm 3 m/S 753 mmHg 94%
    07:00 0°C° 0.2 mm 3 m/S 754 mmHg 94%
    08:00 0°C° 0.2 mm 3 m/S 754 mmHg 93%
    09:00 0°C° 0.1 mm 3 m/S 755 mmHg 93%
    10:00 0°C° 0.1 mm 3 m/S 755 mmHg 92%
    11:00 +1°C° 0.1 mm 3 m/S 755 mmHg 91%
    12:00 +1°C° 0.1 mm 3 m/S 756 mmHg 91%
    13:00 +1°C° 0.1 mm 3 m/S 756 mmHg 91%
    14:00 +1°C° 0.1 mm 3 m/S 756 mmHg 91%
    15:00 0°C° 0.1 mm 3 m/S 756 mmHg 92%
    16:00 0°C° 0.1 mm 3 m/S 757 mmHg 93%
    17:00 0°C° 0.1 mm 3 m/S 757 mmHg 94%
    18:00 0°C° 0.1 mm 3 m/S 757 mmHg 93%
    19:00 0°C° 0.1 mm 3 m/S 757 mmHg 92%
    20:00 0°C° 0.1 mm 3 m/S 757 mmHg 91%
    21:00 -1°C° 0 mm 3 m/S 757 mmHg 91%
    22:00 -1°C° 0 mm 2 m/S 758 mmHg 92%
    23:00 -1°C° 0 mm 2 m/S 758 mmHg 92%

    20 November, Dienstag

    Zeit Temperatur Niederschläge Wind Luftdruck Luftfeuchtigkeit
    00:00 -1°C° 0 mm 2 m/S 758 mmHg 92%
    01:00 -1°C° 0 mm 2 m/S 758 mmHg 93%
    02:00 -1°C° 0 mm 2 m/S 758 mmHg 93%
    03:00 -2°C° 0 mm 2 m/S 758 mmHg 93%
    04:00 -2°C° 0 mm 2 m/S 758 mmHg 93%
    05:00 -3°C° 0 mm 2 m/S 758 mmHg 93%
    06:00 -3°C° 0 mm 2 m/S 758 mmHg 92%
    07:00 -4°C° 0 mm 2 m/S 758 mmHg 91%
    08:00 -4°C° 0 mm 2 m/S 757 mmHg 91%
    09:00 -3°C° 0 mm 2 m/S 757 mmHg 87%
    10:00 -3°C° 0 mm 2 m/S 757 mmHg 83%
    11:00 -2°C° 0 mm 2 m/S 757 mmHg 79%
    12:00 -2°C° 0 mm 2 m/S 757 mmHg 80%
    13:00 0°C° 0 mm 1 m/S 756 mmHg 81%
    14:00 0°C° 0 mm 1 m/S 756 mmHg 82%
    15:00 -1°C° 0 mm 1 m/S 755 mmHg 84%
    16:00 -1°C° 0 mm 1 m/S 755 mmHg 86%
    17:00 -2°C° 0 mm 1 m/S 755 mmHg 88%
    18:00 -2°C° 0 mm 1 m/S 755 mmHg 88%
    19:00 -2°C° 0 mm 1 m/S 755 mmHg 88%
    20:00 -2°C° 0 mm 1 m/S 754 mmHg 88%
    21:00 -2°C° 0 mm 1 m/S 754 mmHg 87%
    22:00 -2°C° 0 mm 1 m/S 754 mmHg 87%
    23:00 -1°C° 0 mm 1 m/S 754 mmHg 87%

    21 November, Mittwoch

    Zeit Temperatur Niederschläge Wind Luftdruck Luftfeuchtigkeit
    00:00 -2°C° 0 mm 1 m/S 754 mmHg 88%
    01:00 -2°C° 0 mm 1 m/S 754 mmHg 89%
    02:00 -2°C° 0 mm 1 m/S 754 mmHg 90%
    03:00 -2°C° 0 mm 1 m/S 754 mmHg 90%
    04:00 -4°C° 0 mm 2 m/S 754 mmHg 89%
    05:00 -3°C° 0 mm 2 m/S 754 mmHg 89%
    06:00 -3°C° 0.1 mm 2 m/S 754 mmHg 89%
    07:00 -3°C° 0.1 mm 2 m/S 755 mmHg 89%
    08:00 -3°C° 0.1 mm 2 m/S 755 mmHg 89%
    09:00 -3°C° 0 mm 2 m/S 755 mmHg 87%
    10:00 -2°C° 0 mm 2 m/S 755 mmHg 85%
    11:00 -2°C° 0 mm 2 m/S 756 mmHg 83%
    12:00 -2°C° 0 mm 2 m/S 756 mmHg 83%
    13:00 -2°C° 0 mm 2 m/S 756 mmHg 83%
    14:00 -2°C° 0 mm 2 m/S 755 mmHg 84%
    15:00 -3°C° 0 mm 2 m/S 756 mmHg 87%
    16:00 -3°C° 0 mm 2 m/S 756 mmHg 89%
    17:00 -4°C° 0 mm 2 m/S 756 mmHg 92%
    18:00 -4°C° 0 mm 2 m/S 756 mmHg 93%
    19:00 -4°C° 0 mm 2 m/S 756 mmHg 94%
    20:00 -4°C° 0 mm 2 m/S 756 mmHg 95%
    21:00 -5°C° 0 mm 2 m/S 756 mmHg 95%
    22:00 -5°C° 0 mm 2 m/S 756 mmHg 96%
    23:00 -5°C° 0 mm 2 m/S 757 mmHg 96%
    Mehr zeigen